Regional Weather Roundup
Issued by NWS

Home | Current Version | Previous Version | Graphics & Text | Print | Product List | Glossary On
Versions: 1 2 3 4 5 6 7 8 9 10 11 12 13 14 15 16 17 18 19 20 21 22 23 24 25 26 27 28 29 30 31 32 33 34 35 36 37 38 39 40 41 42 43 44 45 46 47 48 49 50
000
ASUS43 KOAX 251210
RWRNE

WEATHER ROUNDUP FOR NEBRASKA
NATIONAL WEATHER SERVICE OMAHA NE
700 AM CDT SUN SEP 25 2016

NOTES: SATELLITE DATA IS BEING USED TO AUGMENT CLOUD COVER ABOVE
       12000 FEET.
       "FAIR" INDICATES FEW OR NO CLOUDS BELOW 12,000 FEET WITH NO
       SIGNIFICANT WEATHER AND/OR OBSTRUCTIONS TO VISIBILITY.

  * THESE STATIONS DO NOT REPORT WEATHER SUCH AS RAIN...SNOW OR FOG.

NEZ001>004-019>022-054>056-251300-
NEBRASKA PANHANDLE

CITY           SKY/WX    TMP DP  RH WIND       PRES   REMARKS
SCOTTSBLUFF    CLEAR     40  37  89 NW6       30.36R
6HR MIN TEMP:  40; 6HR MAX TEMP:  47;

ALLIANCE       CLEAR     43  40  89 W12       30.31R
6HR MIN TEMP:  42; 6HR MAX TEMP:  48;

CHADRON        PTCLDY    48  41  76 W16       30.30R
6HR MIN TEMP:  48; 6HR MAX TEMP:  53;

KIMBALL        CLEAR     40  37  87 W8        30.38R
SIDNEY         CLEAR     43  37  79 W10       30.37R
6HR MIN TEMP:  43; 6HR MAX TEMP:  50;

$$

NEZ057>060-069>072-079>082-251300-
SOUTHWEST NEBRASKA

CITY           SKY/WX    TMP DP  RH WIND       PRES   REMARKS
NORTH PLATTE   CLEAR     46  41  82 NW6       30.26R
6HR MIN TEMP:  46; 6HR MAX TEMP:  54;

IMPERIAL       CLOUDY    48  39  71 NW13      30.29R
6HR MIN TEMP:  47; 6HR MAX TEMP:  53;

LEXINGTON      CLEAR     50  42  75 NW12      30.21R
MCCOOK         CLEAR     48  41  76 W8        30.26R
6HR MIN TEMP:  47; 6HR MAX TEMP:  58;

OGALLALA       CLEAR     45  41  86 W6        30.31R
$$

NEZ005>010-023>029-035>040-094-251300-
NORTH CENTRAL NEBRASKA

CITY           SKY/WX    TMP DP  RH WIND       PRES   REMARKS
VALENTINE      CLEAR     52  41  66 W13       30.17R
6HR MIN TEMP:  50; 6HR MAX TEMP:  55;

AINSWORTH      CLEAR     53  44  71 W13G18    30.18R
BROKEN BOW     CLEAR     52  42  69 NW14G25   30.19R
6HR MIN TEMP:  52; 6HR MAX TEMP:  56;

O`NEILL        CLEAR     54  43  67 W12G18    30.12R
ORD            CLEAR     52  41  66 NW10      30.16R
6HR MIN TEMP:  51; 6HR MAX TEMP:  58;

THEDFORD       CLEAR     49  43  79 W10       30.23R
$$

NEZ041-046>049-061>064-073>077-083>087-251300-
SOUTH CENTRAL NEBRASKA

CITY           SKY/WX    TMP DP  RH WIND       PRES   REMARKS
GRAND ISLAND   PTCLDY    50  43  77 W6        30.17R
6HR MIN TEMP:  50; 6HR MAX TEMP:  59;

AURORA         PTCLDY    52  46  80 NW6       30.15S
HASTINGS       PTCLDY    51  43  74 NW7       30.18R
6HR MIN TEMP:  51; 6HR MAX TEMP:  60;

HEBRON         MOCLDY    54  48  80 CALM      30.15R
HOLDREGE       CLEAR     51  42  71 NW7       30.20R
KEARNEY *      CLEAR     52  39  62 NW8       30.19R
YORK           MOCLDY    52  46  82 NW8       30.15R
$$

NEZ011>018-030>034-042>045-251300-
NORTHEAST NEBRASKA

CITY           SKY/WX    TMP DP  RH WIND       PRES   REMARKS
NORFOLK        CLEAR     52  44  74 W10       30.10R
6HR MIN TEMP:  52; 6HR MAX TEMP:  64;

ALBION         CLEAR     53  44  71 NW8       30.12R
BLAIR          MOCLDY    57  52  81 W5        30.08S
FREMONT        CLOUDY    55  49  82 W7        30.10R
TEKAMAH        CLOUDY    56  50  80 W5        30.08R
6HR MIN TEMP:  55; 6HR MAX TEMP:  69; 6HR PCP:  0.17;

WAYNE          CLEAR     52  46  81 W5        30.09R
$$

NEZ050>053-065>068-078-088>093-251300-
SOUTHEAST NEBRASKA

CITY           SKY/WX    TMP DP  RH WIND       PRES   REMARKS
LINCOLN        CLOUDY    58  48  69 NW5       30.13R
6HR MIN TEMP:  58; 6HR MAX TEMP:  69; 6HR PCP:  0.20;

OMAHA EPPLEY   CLOUDY    59  50  72 NW12      30.07R
6HR MIN TEMP:  59; 6HR MAX TEMP:  70; 6HR PCP:  0.10;

BEATRICE       CLOUDY    58  51  78 NW8       30.12R
FALLS CITY     RAIN      67  67 100 N12       30.05R FOG
6HR MIN TEMP:  67; 6HR MAX TEMP:  69; 6HR PCP:  0.19;

NEBRASKA CITY  MOCLDY    60  49  68 NW10      30.08R
PLATTSMOUTH    CLOUDY    58  49  72 NW9       30.08R
$$

NEZ044-045-051>053-067-251300-
OMAHA AREA

CITY           SKY/WX    TMP DP  RH WIND       PRES   REMARKS
OMAHA EPPLEY   CLOUDY    59  50  72 NW12      30.07R
6HR MIN TEMP:  59; 6HR MAX TEMP:  70; 6HR PCP:  0.10;

BLAIR          MOCLDY    57  52  81 W5        30.08S
FREMONT        CLOUDY    55  49  82 W7        30.10R
MILLARD        MOCLDY    60  51  72 NW6       30.09R
OFFUTT AFB     MOCLDY    59  53  78 NW9       30.07R
PLATTSMOUTH    CLOUDY    58  49  72 NW9       30.08R
WAHOO          FAIR      56  49  78 NW6       30.10R
$$




USA.gov is the U.S. government's official web portal to all federal, state and local government web resources and services.